| time (UTC) | temp F | wind direction | speed MPH | gust MPH | rain 1hr in | rain 24hr in | rain mn in | humidity % | barometer mb |
| 20260906074445 | 74 | 303 | 0.0 | 2.0 | 0.00 | 0.00 | 0.00 | 99 | 1014.6 |
| 20260906073943 | 74 | 335 | 0.0 | 1.0 | 0.00 | 0.00 | 0.00 | 99 | 1014.6 |
| 20260906073438 | 74 | 335 | 1.0 | 1.0 | 0.00 | 0.00 | 0.00 | 99 | 1014.3 |
| 20260906072935 | 74 | 336 | 0.0 | 0.0 | 0.00 | 0.00 | 0.00 | 99 | 1014.3 |
| 20260906072430 | 74 | 336 | 0.0 | 0.0 | 0.00 | 0.00 | 0.00 | 99 | 1014.0 |
| 20260906071926 | 74 | 335 | 0.0 | 0.0 | 0.00 | 0.00 | 0.00 | 99 | 1014.1 |
| 20260906071421 | 74 | 336 | 0.0 | 1.0 | 0.00 | 0.00 | 0.00 | 99 | 1014.1 |
| 20260906070917 | 75 | 319 | 0.0 | 0.0 | 0.00 | 0.00 | 0.00 | 99 | 1014.1 |
| 20260906070413 | 74 | 324 | 1.0 | 1.0 | 0.00 | 0.00 | 0.00 | 99 | 1014.3 |
| 20260906065909 | 74 | 328 | 0.0 | 0.0 | 0.00 | 0.00 | 0.00 | 99 | 1014.0 |
| 20260906065409 | 74 | 328 | 0.0 | 0.0 | 0.00 | 0.00 | 0.00 | 99 | 1014.3 |
| 20260906064905 | 74 | 328 | 0.0 | 0.0 | 0.00 | 0.00 | 0.00 | 99 | 1014.0 |
| 20260906064401 | 74 | 328 | 1.0 | 1.0 | 0.00 | 0.00 | 0.00 | 99 | 1014.2 |
| 20260906063900 | 74 | 328 | 1.0 | 1.0 | 0.00 | 0.00 | 0.00 | 99 | 1013.9 |
| 20260906063355 | 74 | 343 | 0.0 | 0.0 | 0.00 | 0.00 | 0.00 | 99 | 1014.3 |
| 20260906062851 | 74 | 336 | 1.0 | 2.0 | 0.00 | 0.00 | 0.00 | 99 | 1014.2 |
| 20260906062350 | 74 | 265 | 1.0 | 1.0 | 0.00 | 0.00 | 0.00 | 99 | 1014.2 |
| 20260906061846 | 74 | 311 | 0.0 | 1.0 | 0.00 | 0.00 | 0.00 | 99 | 1014.2 |
| 20260906061342 | 74 | 182 | 1.0 | 1.0 | 0.00 | 0.00 | 0.00 | 99 | 1013.9 |
| 20260906060836 | 74 | 182 | 0.0 | 0.0 | 0.00 | 0.00 | 0.00 | 99 | 1013.9 |
| 20260906060334 | 74 | 182 | 0.0 | 1.0 | 0.00 | 0.00 | 0.00 | 99 | 1014.0 |
| 20260906055830 | 74 | 182 | 0.0 | 0.0 | 0.00 | 0.00 | 0.00 | 99 | 1013.6 |
| 20260906055325 | 74 | 182 | 0.0 | 1.0 | 0.00 | 0.00 | 0.00 | 99 | 1013.6 |
| 20260906054820 | 74 | 182 | 0.0 | 0.0 | 0.00 | 0.00 | 0.00 | 99 | 1013.6 |
| 20260906054315 | 74 | 182 | 2.0 | 1.0 | 0.00 | 0.00 | 0.00 | 99 | 1013.4 |
| 20260906053812 | 74 | 182 | 1.0 | 1.0 | 0.00 | 0.00 | 0.00 | 99 | 1014.0 |
| 20260906053307 | 74 | 182 | 0.0 | 0.0 | 0.00 | 0.00 | 0.00 | 99 | 1013.9 |
| 20260906052802 | 74 | 183 | 1.0 | 1.0 | 0.00 | 0.00 | 0.00 | 99 | 1013.8 |
| 20260906052259 | 74 | 182 | 1.0 | 1.0 | 0.00 | 0.00 | 0.00 | 99 | 1013.6 |
| 20260906051755 | 74 | 183 | 0.0 | 1.0 | 0.00 | 0.00 | 0.00 | 99 | 1013.6 |
| 20260906051254 | 74 | 182 | 1.0 | 1.0 | 0.00 | 0.00 | 0.00 | 99 | 1013.8 |
| 20260906050750 | 74 | 183 | 1.0 | 1.0 | 0.00 | 0.00 | 0.00 | 99 | 1013.8 |
| 20260906050245 | 74 | 193 | 1.0 | 2.0 | 0.00 | 0.00 | 0.00 | 99 | 1013.8 |
| 20260906045744 | 74 | 351 | 1.0 | 1.0 | 0.00 | 0.19 | 0.19 | 99 | 1013.9 |
| 20260906045239 | 74 | 351 | 0.0 | 0.0 | 0.00 | 0.19 | 0.19 | 99 | 1014.0 |
| 20260906044735 | 74 | 351 | 0.0 | 0.0 | 0.00 | 0.19 | 0.19 | 99 | 1014.2 |
| 20260906044229 | 74 | 351 | 0.0 | 0.0 | 0.00 | 0.19 | 0.19 | 99 | 1014.4 |
| 20260906043726 | 74 | 351 | 1.0 | 1.0 | 0.00 | 0.19 | 0.19 | 99 | 1014.3 |
| 20260906043222 | 74 | 42 | 1.0 | 2.0 | 0.00 | 0.19 | 0.19 | 99 | 1014.1 |
| 20260906042721 | 74 | 338 | 0.0 | 1.0 | 0.00 | 0.19 | 0.19 | 99 | 1014.0 |
| 20260906042220 | 74 | 338 | 0.0 | 0.0 | 0.00 | 0.19 | 0.19 | 99 | 1014.0 |
| 20260906041716 | 74 | 338 | 0.0 | 0.0 | 0.00 | 0.19 | 0.19 | 99 | 1013.9 |
| 20260906041211 | 74 | 338 | 0.0 | 0.0 | 0.00 | 0.19 | 0.19 | 99 | 1014.0 |
| 20260906040706 | 74 | 339 | 0.0 | 0.0 | 0.00 | 0.19 | 0.19 | 99 | 1014.1 |
| 20260906040202 | 74 | 339 | 0.0 | 0.0 | 0.00 | 0.19 | 0.19 | 99 | 1014.1 |
| 20260906035657 | 74 | 338 | 0.0 | 0.0 | 0.00 | 0.19 | 0.19 | 99 | 1014.0 |
| 20260906035153 | 74 | 338 | 0.0 | 0.0 | 0.00 | 0.19 | 0.19 | 99 | 1014.0 |
| 20260906034647 | 74 | 338 | 0.0 | 0.0 | 0.00 | 0.19 | 0.19 | 98 | 1014.2 |
| 20260906034142 | 74 | 338 | 0.0 | 0.0 | 0.00 | 0.19 | 0.19 | 98 | 1014.1 |
| 20260906033638 | 75 | 339 | 0.0 | 0.0 | 0.00 | 0.19 | 0.19 | 98 | 1014.1 |
| 20260906033138 | 75 | 339 | 0.0 | 0.0 | 0.00 | 0.19 | 0.19 | 98 | 1013.8 |
| 20260906032635 | 74 | 338 | 0.0 | 1.0 | 0.00 | 0.19 | 0.19 | 98 | 1014.0 |
| 20260906032134 | 74 | 338 | 0.0 | 0.0 | 0.00 | 0.19 | 0.19 | 98 | 1013.9 |
| 20260906031630 | 75 | 338 | 0.0 | 0.0 | 0.00 | 0.19 | 0.19 | 98 | 1014.2 |
| 20260906031125 | 75 | 338 | 0.0 | 0.0 | 0.00 | 0.19 | 0.19 | 98 | 1014.0 |
| 20260906030624 | 75 | 338 | 1.0 | 1.0 | 0.00 | 0.19 | 0.19 | 98 | 1013.9 |
| 20260906030120 | 75 | 311 | 2.0 | 2.0 | 0.00 | 0.19 | 0.19 | 98 | 1013.8 |
| 20260906025619 | 75 | 179 | 0.0 | 0.0 | 0.00 | 0.19 | 0.19 | 98 | 1013.8 |
| 20260906025118 | 75 | 180 | 1.0 | 1.0 | 0.00 | 0.19 | 0.19 | 98 | 1013.8 |
| 20260906024613 | 75 | 178 | 0.0 | 1.0 | 0.00 | 0.19 | 0.19 | 98 | 1013.9 |
| 20260906024108 | 75 | 178 | 0.0 | 1.0 | 0.00 | 0.19 | 0.19 | 98 | 1013.4 |
| 20260906023604 | 75 | 178 | 0.0 | 1.0 | 0.00 | 0.19 | 0.19 | 98 | 1013.5 |
| 20260906023103 | 75 | 184 | 2.0 | 2.0 | 0.00 | 0.19 | 0.19 | 98 | 1013.5 |
| 20260906022559 | 75 | 153 | 1.0 | 1.0 | 0.00 | 0.19 | 0.19 | 98 | 1013.3 |
| 20260906022054 | 75 | 153 | 0.0 | 1.0 | 0.00 | 0.19 | 0.19 | 98 | 1013.4 |
| 20260906021550 | 75 | 153 | 1.0 | 1.0 | 0.00 | 0.19 | 0.19 | 98 | 1013.5 |
| 20260906021049 | 75 | 152 | 1.0 | 1.0 | 0.00 | 0.19 | 0.19 | 98 | 1013.4 |
| 20260906020548 | 75 | 152 | 0.0 | 0.0 | 0.00 | 0.19 | 0.19 | 98 | 1013.4 |
| 20260906020048 | 76 | 152 | 0.0 | 0.0 | 0.00 | 0.19 | 0.19 | 98 | 1013.4 |
| 20260906015548 | 75 | 152 | 0.0 | 0.0 | 0.00 | 0.19 | 0.19 | 98 | 1013.4 |
| 20260906015047 | 75 | 152 | 1.0 | 2.0 | 0.00 | 0.19 | 0.19 | 98 | 1013.4 |
| 20260906014542 | 76 | 152 | 0.0 | 1.0 | 0.00 | 0.19 | 0.19 | 98 | 1013.3 |
| 20260906014038 | 76 | 152 | 1.0 | 2.0 | 0.00 | 0.19 | 0.19 | 98 | 1013.3 |
| 20260906013533 | 76 | 151 | 1.0 | 1.0 | 0.00 | 0.19 | 0.19 | 98 | 1013.3 |
| 20260906013029 | 75 | 151 | 2.0 | 1.0 | 0.00 | 0.19 | 0.19 | 98 | 1013.2 |
| 20260906012524 | 75 | 150 | 1.0 | 1.0 | 0.00 | 0.19 | 0.19 | 98 | 1013.1 |
| 20260906012023 | 75 | 221 | 1.0 | 1.0 | 0.00 | 0.19 | 0.19 | 98 | 1013.0 |
| 20260906011519 | 75 | 222 | 1.0 | 1.0 | 0.00 | 0.19 | 0.19 | 97 | 1012.7 |
| 20260906011019 | 75 | 223 | 0.0 | 0.0 | 0.05 | 0.19 | 0.19 | 97 | 1012.8 |
| 20260906010514 | 75 | 222 | 0.0 | 1.0 | 0.00 | 0.18 | 0.18 | 97 | 1012.5 |
| 20260906010011 | 75 | 223 | 0.0 | 1.0 | 0.00 | 0.18 | 0.18 | 97 | 1012.6 |
| 20260906005510 | 76 | 224 | 0.0 | 1.0 | 0.00 | 0.18 | 0.18 | 97 | 1012.3 |
| 20260906005009 | 76 | 224 | 1.0 | 2.0 | 0.00 | 0.18 | 0.18 | 97 | 1012.3 |
| 20260906004509 | 76 | 245 | 0.0 | 0.0 | 0.00 | 0.18 | 0.18 | 96 | 1012.1 |
| 20260906004004 | 76 | 245 | 0.0 | 2.0 | 0.00 | 0.18 | 0.18 | 96 | 1012.3 |
| 20260906003459 | 76 | 245 | 1.0 | 1.0 | 0.00 | 0.18 | 0.18 | 96 | 1012.1 |
| 20260906002954 | 76 | 245 | 0.0 | 0.0 | 0.00 | 0.18 | 0.18 | 96 | 1012.1 |
| 20260906002455 | 77 | 245 | 0.0 | 1.0 | 0.00 | 0.18 | 0.18 | 95 | 1012.6 |
| 20260906001950 | 77 | 214 | 2.0 | 1.0 | 0.12 | 0.18 | 0.18 | 95 | 1012.2 |
| 20260906001446 | 77 | 286 | 1.0 | 1.0 | 0.19 | 0.18 | 0.18 | 95 | 1012.6 |
| 20260906000940 | 77 | 185 | 0.0 | 1.0 | 0.00 | 0.15 | 0.15 | 95 | 1012.5 |
| 20260906000436 | 77 | 246 | 3.0 | 3.0 | 0.00 | 0.15 | 0.15 | 95 | 1012.4 |
| 20260905235930 | 77 | 166 | 2.0 | 1.0 | 0.00 | 0.15 | 0.15 | 94 | 1012.6 |
| 20260905235430 | 77 | 165 | 0.0 | 1.0 | 0.00 | 0.15 | 0.15 | 93 | 1012.3 |
| 20260905234925 | 77 | 165 | 0.0 | 1.0 | 0.00 | 0.15 | 0.15 | 93 | 1012.3 |
| 20260905234420 | 77 | 165 | 0.0 | 0.0 | 0.00 | 0.15 | 0.15 | 94 | 1012.3 |
| 20260905233915 | 78 | 165 | 0.0 | 0.0 | 0.00 | 0.15 | 0.15 | 94 | 1012.3 |
| 20260905233410 | 77 | 165 | 0.0 | 0.0 | 0.00 | 0.15 | 0.15 | 94 | 1012.4 |
| 20260905232909 | 77 | 165 | 0.0 | 1.0 | 0.00 | 0.15 | 0.15 | 94 | 1012.5 |
| 20260905232405 | 77 | 168 | 1.0 | 2.0 | 0.00 | 0.15 | 0.15 | 94 | 1012.4 |
| 20260905231901 | 77 | 195 | 2.0 | 2.0 | 0.00 | 0.15 | 0.15 | 93 | 1012.6 |
| 20260905231356 | 77 | 174 | 1.0 | 2.0 | 0.00 | 0.15 | 0.15 | 94 | 1012.4 |
| 20260905230853 | 77 | 183 | 1.0 | 1.0 | 0.00 | 0.15 | 0.15 | 95 | 1012.2 |
| 20260905230350 | 78 | 192 | 1.0 | 2.0 | 0.00 | 0.15 | 0.15 | 95 | 1012.1 |
| 20260905225849 | 77 | 217 | 2.0 | 3.0 | 0.00 | 0.15 | 0.15 | 94 | 1012.0 |
| 20260905225345 | 78 | 220 | 2.0 | 2.0 | 0.00 | 0.15 | 0.15 | 94 | 1011.9 |
| 20260905224840 | 78 | 195 | 2.0 | 2.0 | 0.00 | 0.15 | 0.15 | 95 | 1012.3 |
| 20260905224336 | 78 | 196 | 2.0 | 3.0 | 0.00 | 0.15 | 0.15 | 94 | 1012.1 |
| 20260905223836 | 78 | 197 | 2.0 | 2.0 | 0.00 | 0.15 | 0.15 | 93 | 1012.0 |
| 20260905223334 | 78 | 174 | 2.0 | 3.0 | 0.12 | 0.15 | 0.15 | 93 | 1012.0 |
| 20260905222828 | 79 | 173 | 1.0 | 3.0 | 0.66 | 0.15 | 0.15 | 90 | 1012.0 |
| 20260905222327 | 82 | 237 | 2.0 | 4.0 | 0.85 | 0.14 | 0.14 | 84 | 1012.0 |
| 20260905221823 | 86 | 204 | 4.0 | 8.0 | 0.42 | 0.07 | 0.07 | 67 | 1012.7 |
| 20260905221320 | 88 | 256 | 9.0 | 15.0 | 0.00 | 0.00 | 0.00 | 59 | 1012.8 |
| 20260905220816 | 91 | 111 | 6.0 | 10.0 | 0.00 | 0.00 | 0.00 | 60 | 1012.8 |
| 20260905220312 | 94 | 142 | 6.0 | 8.0 | 0.00 | 0.00 | 0.00 | 55 | 1012.6 |
| 20260905215811 | 95 | 213 | 0.0 | 1.0 | 0.00 | 0.00 | 0.00 | 64 | 1012.0 |
| 20260905215306 | 95 | 215 | 1.0 | 1.0 | 0.00 | 0.00 | 0.00 | 59 | 1011.6 |
| 20260905214802 | 96 | 214 | 1.0 | 1.0 | 0.00 | 0.00 | 0.00 | 59 | 1011.7 |
| 20260905214258 | 95 | 215 | 1.0 | 2.0 | 0.00 | 0.00 | 0.00 | 58 | 1011.9 |
| 20260905213753 | 95 | 215 | 1.0 | 2.0 | 0.00 | 0.00 | 0.00 | 64 | 1011.8 |
| 20260905213249 | 96 | 224 | 1.0 | 1.0 | 0.00 | 0.00 | 0.00 | 56 | 1011.9 |
| 20260905212744 | 96 | 224 | 2.0 | 2.0 | 0.00 | 0.00 | 0.00 | 57 | 1012.1 |
| 20260905212243 | 96 | 225 | 1.0 | 1.0 | 0.00 | 0.00 | 0.00 | 61 | 1011.8 |
| 20260905211743 | 97 | 215 | 1.0 | 2.0 | 0.00 | 0.00 | 0.00 | 58 | 1011.8 |
| 20260905211238 | 98 | 222 | 1.0 | 1.0 | 0.00 | 0.00 | 0.00 | 57 | 1012.1 |
| 20260905210735 | 98 | 325 | 1.0 | 3.0 | 0.00 | 0.00 | 0.00 | 52 | 1011.9 |
| 20260905210234 | 98 | 257 | 1.0 | 2.0 | 0.00 | 0.00 | 0.00 | 56 | 1012.0 |
| 20260905205733 | 98 | 261 | 1.0 | 2.0 | 0.00 | 0.00 | 0.00 | 59 | 1012.0 |
| 20260905205229 | 97 | 306 | 0.0 | 2.0 | 0.00 | 0.00 | 0.00 | 55 | 1011.9 |
| 20260905204728 | 97 | 5 | 2.0 | 3.0 | 0.00 | 0.00 | 0.00 | 52 | 1011.9 |
| 20260905204224 | 98 | 253 | 1.0 | 1.0 | 0.00 | 0.00 | 0.00 | 55 | 1012.2 |
| 20260905203723 | 98 | 15 | 1.0 | 2.0 | 0.00 | 0.00 | 0.00 | 56 | 1012.1 |
| 20260905203219 | 98 | 310 | 2.0 | 4.0 | 0.00 | 0.00 | 0.00 | 51 | 1012.2 |
| 20260905202714 | 98 | 327 | 2.0 | 3.0 | 0.00 | 0.00 | 0.00 | 53 | 1012.2 |
| 20260905202209 | 98 | 175 | 4.0 | 4.0 | 0.00 | 0.00 | 0.00 | 50 | 1012.3 |
| 20260905201705 | 98 | 241 | 1.0 | 3.0 | 0.00 | 0.00 | 0.00 | 55 | 1012.3 |
| 20260905201205 | 98 | 7 | 1.0 | 2.0 | 0.00 | 0.00 | 0.00 | 52 | 1012.5 |
| 20260905200700 | 98 | 22 | 2.0 | 3.0 | 0.00 | 0.00 | 0.00 | 47 | 1012.8 |
| 20260905200155 | 99 | 184 | 1.0 | 6.0 | 0.00 | 0.00 | 0.00 | 49 | 1012.5 |
| 20260905195654 | 98 | 199 | 1.0 | 1.0 | 0.00 | 0.00 | 0.00 | 50 | 1012.9 |
| 20260905195149 | 98 | 190 | 3.0 | 3.0 | 0.00 | 0.00 | 0.00 | 50 | 1012.9 |
| 20260905194644 | 98 | 353 | 0.0 | 1.0 | 0.00 | 0.00 | 0.00 | 55 | 1013.1 |
| 20260905194144 | 97 | 335 | 2.0 | 4.0 | 0.00 | 0.00 | 0.00 | 56 | 1013.2 |
| 20260905193639 | 98 | 318 | 1.0 | 2.0 | 0.00 | 0.00 | 0.00 | 53 | 1012.9 |
| 20260905193139 | 98 | 349 | 1.0 | 4.0 | 0.00 | 0.00 | 0.00 | 53 | 1013.1 |
| 20260905192634 | 98 | 333 | 1.0 | 1.0 | 0.00 | 0.00 | 0.00 | 51 | 1013.2 |
| 20260905192131 | 99 | 336 | 4.0 | 6.0 | 0.00 | 0.00 | 0.00 | 50 | 1013.2 |
| 20260905191630 | 99 | 279 | 2.0 | 3.0 | 0.00 | 0.00 | 0.00 | 48 | 1013.1 |
| 20260905191128 | 98 | 182 | 1.0 | 1.0 | 0.00 | 0.00 | 0.00 | 50 | 1013.4 |
| 20260905190627 | 98 | 247 | 1.0 | 1.0 | 0.00 | 0.00 | 0.00 | 56 | 1013.4 |
| 20260905190126 | 97 | 257 | 2.0 | 2.0 | 0.00 | 0.00 | 0.00 | 49 | 1013.6 |
| 20260905185626 | 97 | 293 | 4.0 | 8.0 | 0.00 | 0.00 | 0.00 | 54 | 1013.6 |
| 20260905185126 | 97 | 317 | 2.0 | 3.0 | 0.00 | 0.00 | 0.00 | 57 | 1013.5 |
| 20260905184620 | 97 | 313 | 2.0 | 3.0 | 0.00 | 0.00 | 0.00 | 55 | 1014.0 |
| 20260905184119 | 97 | 356 | 4.0 | 4.0 | 0.00 | 0.00 | 0.00 | 56 | 1013.8 |
| 20260905183618 | 97 | 192 | 1.0 | 1.0 | 0.00 | 0.00 | 0.00 | 53 | 1013.9 |
| 20260905183114 | 96 | 330 | 3.0 | 3.0 | 0.00 | 0.00 | 0.00 | 58 | 1013.9 |
| 20260905182614 | 96 | 314 | 2.0 | 3.0 | 0.00 | 0.00 | 0.00 | 56 | 1014.0 |
| 20260905182113 | 96 | 303 | 3.0 | 4.0 | 0.00 | 0.00 | 0.00 | 59 | 1014.1 |
| 20260905181608 | 96 | 309 | 2.0 | 4.0 | 0.00 | 0.00 | 0.00 | 59 | 1014.2 |
| 20260905181107 | 96 | 350 | 2.0 | 4.0 | 0.00 | 0.00 | 0.00 | 56 | 1014.4 |
| 20260905180602 | 97 | 322 | 0.0 | 3.0 | 0.00 | 0.00 | 0.00 | 52 | 1014.2 |
| 20260905180057 | 96 | 28 | 2.0 | 2.0 | 0.00 | 0.00 | 0.00 | 53 | 1014.3 |
| 20260905175556 | 96 | 234 | 1.0 | 4.0 | 0.00 | 0.00 | 0.00 | 61 | 1014.5 |
| 20260905175052 | 96 | 144 | 2.0 | 3.0 | 0.00 | 0.00 | 0.00 | 57 | 1014.4 |
| 20260905174548 | 96 | 293 | 0.0 | 2.0 | 0.00 | 0.00 | 0.00 | 54 | 1014.7 |
| 20260905174043 | 96 | 350 | 1.0 | 2.0 | 0.00 | 0.00 | 0.00 | 57 | 1014.5 |
| 20260905173540 | 96 | 306 | 2.0 | 3.0 | 0.00 | 0.00 | 0.00 | 56 | 1014.4 |
| 20260905173035 | 96 | 345 | 2.0 | 4.0 | 0.00 | 0.00 | 0.00 | 60 | 1014.8 |
| 20260905172533 | 96 | 4 | 2.0 | 2.0 | 0.00 | 0.00 | 0.00 | 56 | 1014.7 |
| 20260905172029 | 96 | 120 | 1.0 | 4.0 | 0.00 | 0.00 | 0.00 | 56 | 1014.9 |
| 20260905171525 | 96 | 318 | 2.0 | 2.0 | 0.00 | 0.00 | 0.00 | 58 | 1014.9 |
| 20260905171021 | 95 | 342 | 1.0 | 2.0 | 0.00 | 0.00 | 0.00 | 59 | 1014.9 |
| 20260905170517 | 95 | 38 | 2.0 | 2.0 | 0.00 | 0.00 | 0.00 | 58 | 1015.1 |
| 20260905170012 | 95 | 335 | 1.0 | 2.0 | 0.00 | 0.00 | 0.00 | 60 | 1015.2 |
| 20260905165507 | 94 | 322 | 2.0 | 3.0 | 0.00 | 0.00 | 0.00 | 61 | 1014.9 |
| 20260905165002 | 94 | 284 | 1.0 | 3.0 | 0.00 | 0.00 | 0.00 | 62 | 1015.2 |
| 20260905164501 | 93 | 339 | 2.0 | 3.0 | 0.00 | 0.00 | 0.00 | 68 | 1015.2 |
| 20260905163956 | 93 | 9 | 3.0 | 6.0 | 0.00 | 0.00 | 0.00 | 66 | 1015.3 |
| 20260905163453 | 93 | 312 | 0.0 | 3.0 | 0.00 | 0.00 | 0.00 | 63 | 1015.4 |
| 20260905162948 | 93 | 299 | 2.0 | 3.0 | 0.00 | 0.00 | 0.00 | 69 | 1015.4 |
| 20260905162444 | 93 | 342 | 3.0 | 4.0 | 0.00 | 0.00 | 0.00 | 66 | 1015.3 |
| 20260905161938 | 93 | 328 | 2.0 | 3.0 | 0.00 | 0.00 | 0.00 | 64 | 1015.2 |
| 20260905161438 | 92 | 304 | 3.0 | 4.0 | 0.00 | 0.00 | 0.00 | 65 | 1015.6 |
| 20260905160936 | 93 | 298 | 2.0 | 4.0 | 0.00 | 0.00 | 0.00 | 64 | 1015.6 |
| 20260905160430 | 93 | 308 | 3.0 | 3.0 | 0.00 | 0.00 | 0.00 | 63 | 1015.6 |
| 20260905155929 | 93 | 280 | 0.0 | 2.0 | 0.00 | 0.00 | 0.00 | 66 | 1015.7 |
| 20260905155424 | 92 | 336 | 1.0 | 2.0 | 0.00 | 0.00 | 0.00 | 66 | 1015.8 |
| 20260905154923 | 91 | 288 | 2.0 | 2.0 | 0.00 | 0.00 | 0.00 | 66 | 1015.8 |
| 20260905154419 | 91 | 337 | 2.0 | 2.0 | 0.00 | 0.00 | 0.00 | 68 | 1015.8 |
| 20260905153914 | 91 | 309 | 4.0 | 4.0 | 0.00 | 0.00 | 0.00 | 63 | 1015.9 |
| 20260905153411 | 91 | 316 | 2.0 | 3.0 | 0.00 | 0.00 | 0.00 | 64 | 1015.8 |
| 20260905152910 | 91 | 343 | 1.0 | 4.0 | 0.00 | 0.00 | 0.00 | 69 | 1015.9 |
| 20260905152409 | 91 | 357 | 2.0 | 3.0 | 0.00 | 0.00 | 0.00 | 71 | 1015.7 |
| 20260905151904 | 90 | 359 | 1.0 | 2.0 | 0.00 | 0.00 | 0.00 | 69 | 1016.0 |
| 20260905151400 | 90 | 69 | 1.0 | 2.0 | 0.00 | 0.00 | 0.00 | 67 | 1015.7 |
| 20260905150855 | 89 | 4 | 0.0 | 1.0 | 0.00 | 0.00 | 0.00 | 74 | 1015.8 |
| 20260905150354 | 89 | 300 | 0.0 | 1.0 | 0.00 | 0.00 | 0.00 | 70 | 1015.9 |
| 20260905145852 | 88 | 326 | 3.0 | 3.0 | 0.00 | 0.00 | 0.00 | 70 | 1015.9 |
| 20260905145346 | 88 | 3 | 2.0 | 2.0 | 0.00 | 0.00 | 0.00 | 73 | 1015.7 |
| 20260905144845 | 87 | 307 | 0.0 | 2.0 | 0.00 | 0.00 | 0.00 | 74 | 1015.8 |
| 20260905144341 | 87 | 350 | 1.0 | 3.0 | 0.00 | 0.00 | 0.00 | 74 | 1015.8 |
| 20260905143839 | 86 | 307 | 0.0 | 1.0 | 0.00 | 0.00 | 0.00 | 79 | 1016.2 |
| 20260905143334 | 86 | 342 | 3.0 | 3.0 | 0.00 | 0.00 | 0.00 | 80 | 1015.9 |
| 20260905142833 | 86 | 17 | 3.0 | 4.0 | 0.00 | 0.00 | 0.00 | 80 | 1015.9 |
| 20260905142327 | 85 | 17 | 2.0 | 2.0 | 0.00 | 0.00 | 0.00 | 81 | 1015.9 |
| 20260905141823 | 85 | 348 | 2.0 | 3.0 | 0.00 | 0.00 | 0.00 | 83 | 1016.3 |
| 20260905141324 | 85 | 357 | 2.0 | 2.0 | 0.00 | 0.00 | 0.00 | 83 | 1016.3 |
| 20260905140820 | 84 | 313 | 1.0 | 3.0 | 0.00 | 0.00 | 0.00 | 85 | 1016.2 |
| 20260905140319 | 83 | 306 | 3.0 | 4.0 | 0.00 | 0.00 | 0.00 | 84 | 1016.2 |
| 20260905135818 | 83 | 316 | 1.0 | 3.0 | 0.00 | 0.00 | 0.00 | 86 | 1016.3 |
| 20260905135314 | 82 | 310 | 3.0 | 3.0 | 0.00 | 0.00 | 0.00 | 86 | 1016.1 |
| 20260905134810 | 82 | 342 | 2.0 | 2.0 | 0.00 | 0.00 | 0.00 | 88 | 1016.3 |
| 20260905134309 | 81 | 312 | 4.0 | 3.0 | 0.00 | 0.00 | 0.00 | 86 | 1016.3 |
| 20260905133809 | 81 | 345 | 2.0 | 2.0 | 0.00 | 0.00 | 0.00 | 88 | 1016.4 |
| 20260905133304 | 81 | 353 | 2.0 | 3.0 | 0.00 | 0.00 | 0.00 | 88 | 1016.6 |
| 20260905132803 | 80 | 314 | 0.0 | 3.0 | 0.00 | 0.00 | 0.00 | 89 | 1016.5 |
| 20260905132259 | 80 | 318 | 2.0 | 2.0 | 0.00 | 0.00 | 0.00 | 89 | 1016.5 |
| 20260905131753 | 80 | 2 | 2.0 | 3.0 | 0.00 | 0.00 | 0.00 | 89 | 1016.6 |
| 20260905131249 | 80 | 298 | 1.0 | 1.0 | 0.00 | 0.00 | 0.00 | 91 | 1016.5 |
| 20260905130743 | 79 | 237 | 1.0 | 1.0 | 0.00 | 0.00 | 0.00 | 92 | 1016.6 |
| 20260905130243 | 79 | 236 | 1.0 | 1.0 | 0.00 | 0.00 | 0.00 | 91 | 1016.5 |
| 20260905125738 | 79 | 230 | 1.0 | 1.0 | 0.00 | 0.00 | 0.00 | 92 | 1016.6 |
| 20260905125233 | 78 | 230 | 0.0 | 1.0 | 0.00 | 0.00 | 0.00 | 92 | 1016.4 |
| 20260905124730 | 78 | 230 | 1.0 | 1.0 | 0.00 | 0.00 | 0.00 | 92 | 1016.5 |
| 20260905124225 | 77 | 230 | 0.0 | 0.0 | 0.00 | 0.00 | 0.00 | 95 | 1016.6 |
| 20260905123720 | 77 | 230 | 0.0 | 0.0 | 0.00 | 0.00 | 0.00 | 98 | 1016.5 |
| 20260905123217 | 76 | 229 | 0.0 | 0.0 | 0.00 | 0.00 | 0.00 | 99 | 1016.4 |
| 20260905122716 | 75 | 229 | 0.0 | 0.0 | 0.00 | 0.00 | 0.00 | 99 | 1016.5 |
| 20260905122211 | 74 | 229 | 0.0 | 1.0 | 0.00 | 0.00 | 0.00 | 99 | 1016.4 |
| 20260905121706 | 74 | 229 | 1.0 | 1.0 | 0.00 | 0.00 | 0.00 | 99 | 1016.3 |
| 20260905121202 | 74 | 229 | 0.0 | 1.0 | 0.00 | 0.00 | 0.00 | 99 | 1016.5 |
| 20260905120701 | 73 | 256 | 1.0 | 1.0 | 0.00 | 0.00 | 0.00 | 99 | 1016.2 |
| 20260905120156 | 73 | 256 | 0.0 | 1.0 | 0.00 | 0.00 | 0.00 | 99 | 1016.2 |
| 20260905115656 | 73 | 256 | 0.0 | 0.0 | 0.00 | 0.00 | 0.00 | 99 | 1016.2 |
| 20260905115151 | 73 | 256 | 0.0 | 0.0 | 0.00 | 0.00 | 0.00 | 99 | 1016.1 |
| 20260905114650 | 73 | 256 | 0.0 | 1.0 | 0.00 | 0.00 | 0.00 | 99 | 1016.1 |
| 20260905114149 | 73 | 256 | 0.0 | 0.0 | 0.00 | 0.00 | 0.00 | 99 | 1016.1 |
| 20260905113643 | 72 | 256 | 0.0 | 0.0 | 0.00 | 0.00 | 0.00 | 99 | 1016.1 |
| 20260905113139 | 72 | 256 | 0.0 | 0.0 | 0.00 | 0.00 | 0.00 | 99 | 1015.9 |
| 20260905112639 | 72 | 256 | 0.0 | 0.0 | 0.00 | 0.00 | 0.00 | 99 | 1015.9 |
| 20260905112135 | 72 | 256 | 0.0 | 0.0 | 0.00 | 0.00 | 0.00 | 99 | 1016.0 |
| 20260905111635 | 72 | 256 | 0.0 | 0.0 | 0.00 | 0.00 | 0.00 | 99 | 1015.9 |
| 20260905111134 | 72 | 256 | 0.0 | 0.0 | 0.00 | 0.00 | 0.00 | 99 | 1015.8 |
| 20260905110633 | 72 | 256 | 0.0 | 0.0 | 0.00 | 0.00 | 0.00 | 99 | 1015.6 |
| 20260905110128 | 72 | 256 | 0.0 | 0.0 | 0.00 | 0.00 | 0.00 | 99 | 1015.6 |
| 20260905105624 | 72 | 256 | 0.0 | 1.0 | 0.00 | 0.00 | 0.00 | 99 | 1015.4 |
| 20260905105122 | 72 | 256 | 1.0 | 1.0 | 0.00 | 0.00 | 0.00 | 99 | 1015.6 |
| 20260905104618 | 72 | 256 | 0.0 | 0.0 | 0.00 | 0.00 | 0.00 | 99 | 1015.4 |
| 20260905104113 | 72 | 256 | 0.0 | 0.0 | 0.00 | 0.00 | 0.00 | 99 | 1015.3 |
| 20260905103608 | 72 | 256 | 0.0 | 0.0 | 0.00 | 0.00 | 0.00 | 99 | 1015.4 |
| 20260905103104 | 72 | 256 | 0.0 | 0.0 | 0.00 | 0.00 | 0.00 | 99 | 1015.2 |
| 20260905102600 | 72 | 256 | 0.0 | 0.0 | 0.00 | 0.00 | 0.00 | 99 | 1015.2 |
| 20260905102056 | 73 | 256 | 0.0 | 0.0 | 0.00 | 0.00 | 0.00 | 99 | 1014.9 |
| 20260905101554 | 73 | 256 | 1.0 | 1.0 | 0.00 | 0.00 | 0.00 | 99 | 1015.1 |
| 20260905101053 | 73 | 256 | 1.0 | 1.0 | 0.00 | 0.00 | 0.00 | 99 | 1015.1 |
| 20260905100549 | 72 | 256 | 0.0 | 0.0 | 0.00 | 0.00 | 0.00 | 99 | 1015.1 |
| 20260905100049 | 72 | 256 | 0.0 | 0.0 | 0.00 | 0.00 | 0.00 | 99 | 1015.1 |
| 20260905095543 | 72 | 256 | 0.0 | 0.0 | 0.00 | 0.00 | 0.00 | 99 | 1015.1 |
| 20260905095039 | 72 | 256 | 0.0 | 0.0 | 0.00 | 0.00 | 0.00 | 99 | 1015.2 |
| 20260905094534 | 72 | 256 | 0.0 | 0.0 | 0.00 | 0.00 | 0.00 | 99 | 1015.3 |
| 20260905094033 | 72 | 256 | 0.0 | 0.0 | 0.00 | 0.00 | 0.00 | 99 | 1015.1 |
| 20260905093527 | 72 | 256 | 0.0 | 0.0 | 0.00 | 0.00 | 0.00 | 99 | 1015.2 |
| 20260905093024 | 72 | 256 | 0.0 | 0.0 | 0.00 | 0.00 | 0.00 | 99 | 1015.2 |
| 20260905092524 | 72 | 256 | 0.0 | 0.0 | 0.00 | 0.00 | 0.00 | 99 | 1015.1 |
| 20260905092020 | 72 | 256 | 0.0 | 0.0 | 0.00 | 0.00 | 0.00 | 99 | 1015.0 |
| 20260905091514 | 72 | 256 | 0.0 | 0.0 | 0.00 | 0.00 | 0.00 | 99 | 1015.0 |
| 20260905091014 | 72 | 256 | 1.0 | 1.0 | 0.00 | 0.00 | 0.00 | 99 | 1015.0 |
| 20260905090513 | 72 | 256 | 0.0 | 0.0 | 0.00 | 0.00 | 0.00 | 99 | 1014.9 |
| 20260905090009 | 72 | 256 | 0.0 | 0.0 | 0.00 | 0.00 | 0.00 | 99 | 1015.0 |
| 20260905085507 | 72 | 256 | 0.0 | 0.0 | 0.00 | 0.00 | 0.00 | 99 | 1014.9 |
| 20260905085003 | 72 | 256 | 0.0 | 1.0 | 0.00 | 0.00 | 0.00 | 99 | 1015.0 |
| 20260905084503 | 72 | 256 | 1.0 | 1.0 | 0.00 | 0.00 | 0.00 | 99 | 1015.0 |
| 20260905083957 | 73 | 256 | 0.0 | 0.0 | 0.00 | 0.00 | 0.00 | 99 | 1014.9 |
| 20260905083453 | 73 | 256 | 0.0 | 0.0 | 0.00 | 0.00 | 0.00 | 99 | 1014.8 |
| 20260905082948 | 73 | 256 | 0.0 | 0.0 | 0.00 | 0.00 | 0.00 | 99 | 1014.8 |
| 20260905082445 | 73 | 256 | 0.0 | 0.0 | 0.00 | 0.00 | 0.00 | 99 | 1014.8 |
| 20260905081945 | 73 | 256 | 0.0 | 0.0 | 0.00 | 0.00 | 0.00 | 99 | 1014.8 |
| 20260905081439 | 73 | 256 | 0.0 | 0.0 | 0.00 | 0.00 | 0.00 | 99 | 1014.8 |
| 20260905080939 | 73 | 256 | 0.0 | 0.0 | 0.00 | 0.00 | 0.00 | 99 | 1014.8 |
| 20260905080433 | 73 | 256 | 0.0 | 0.0 | 0.00 | 0.00 | 0.00 | 99 | 1014.8 |
| 20260905075932 | 73 | 256 | 0.0 | 0.0 | 0.00 | 0.00 | 0.00 | 99 | 1014.6 |
| 20260905075427 | 73 | 256 | 0.0 | 0.0 | 0.00 | 0.00 | 0.00 | 99 | 1014.8 |
| 20260905074926 | 73 | 256 | 0.0 | 0.0 | 0.00 | 0.00 | 0.00 | 99 | 1014.8 |